Wind_Speed
91 91 91 91 91 90 88 86 85 84 82 81 79 76 72 69 68 64 60 61 62 61 61 62 61 61 61 61 61 60 58 57 55 55 56 55 55 56 57 57 58 58 58 59 60 60 58 57 56 56 56 55 55 55 54 54 54 54 54 54 54 54 53 53 54 53 51 48 49 52 54 53 52 52 50 48 48 50 51 53 54 55 55 56 57 58 59
93 93 94 94 93 92 90 88 86 86 84 82 80 78 75 73 72 68 65 65 64 62 61 60 61 62 62 62 61 60 59 58 57 57 57 57 57 59 59 59 59 60 60 61 62 61 60 59 59 58 58 58 58 58 57 56 56 57 57 57 56 55 54 54 53 52 48 43 43 48 51 51 52 54 55 53 52 53 54 57 58 59 60 62 64 65 64
94 95 96 97 96 94 92 89 88 87 85 83 81 79 77 76 73 69 67 65 62 61 61 61 62 64 63 63 62 61 60 59 58 59 60 59 60 61 61 61 61 61 62 63 63 62 62 62 62 61 61 61 61 60 59 59 59 60 60 60 59 57 56 55 54 51 47 43 44 50 54 56 58 60 62 61 61 62 63 64 64 64 65 67 69 69 66
95 96 98 98 97 96 94 91 88 87 86 84 81 79 77 75 72 69 67 64 60 60 62 63 64 65 64 63 63 62 61 60 59 61 61 61 63 63 63 62 61 62 64 65 65 64 64 65 65 65 65 65 64 62 61 61 62 62 62 62 61 58 57 56 54 52 50 48 48 51 54 56 58 60 61 61 62 64 65 66 67 67 68 69 70 70 69
94 97 98 98 98 98 95 90 87 86 85 83 82 80 78 75 73 71 68 63 60 62 64 65 66 66 65 64 64 63 62 61 61 62 63 64 65 66 64 63 63 64 66 67 66 66 66 67 67 69 69 69 67 65 64 63 63 63 63 62 61 59 57 56 54 52 52 51 50 51 53 55 56 57 59 60 61 63 65 66 68 70 71 72 72 72 72
91 96 98 98 98 97 92 87 85 85 85 84 83 81 79 77 75 72 68 64 62 63 65 66 67 68 67 66 65 64 63 63 63 64 65 66 68 68 67 66 65 66 67 67 67 67 68 68 70 71 71 71 70 68 66 65 63 62 62 62 61 59 57 55 53 53 53 54 53 53 54 56 56 56 58 59 61 64 66 68 69 70 70 71 71 71 70
88 93 97 98 98 95 90 87 87 88 87 86 85 83 81 78 76 73 70 66 65 64 65 68 70 69 68 67 66 65 64 65 66 66 67 69 69 69 69 69 68 68 68 68 68 69 70 70 71 72 73 72 72 71 68 65 63 61 61 61 60 59 57 56 55 55 56 57 57 56 56 58 59 59 60 62 63 66 68 70 70 70 70 70 70 69 69
85 89 94 97 97 94 90 89 89 90 89 87 86 84 81 78 76 74 71 69 67 67 67 70 71 71 70 68 67 67 67 67 68 69 70 71 71 71 71 71 70 69 69 70 70 70 71 72 73 73 73 73 73 72 69 66 63 62 61 60 59 58 58 58 58 58 60 60 60 60 60 60 60 60 61 62 64 66 68 70 72 73 72 71 71 70 72
82 84 89 94 94 92 90 89 90 90 89 88 87 85 82 79 78 76 73 72 71 69 69 71 72 72 71 70 69 69 69 70 71 72 73 74 73 73 74 73 71 70 71 71 71 71 72 73 73 73 73 73 73 72 70 68 65 63 61 60 59 59 60 60 61 61 62 63 62 63 63 62 62 62 62 63 64 65 66 68 70 72 73 73 73 73 74
81 81 84 89 92 91 90 90 90 90 90 89 89 87 83 80 78 76 75 74 73 71 71 72 73 72 71 70 70 70 70 71 72 73 75 75 75 75 74 73 72 72 72 72 72 72 73 73 73 73 72 72 71 70 70 68 66 64 62 61 61 61 62 63 63 64 65 66 66 67 66 65 66 65 64 65 66 65 66 68 70 71 72 74 75 76 76
80 80 80 84 88 90 91 91 90 90 90 90 90 88 85 81 79 77 76 75 74 73 73 73 73 73 72 71 70 70 70 71 73 74 75 75 75 75 75 73 72 72 72 72 72 72 72 72 72 72 71 70 69 69 69 68 66 65 64 64 64 64 65 65 66 67 68 68 69 70 69 68 67 67 67 68 69 68 68 70 72 74 74 75 75 76 75
79 78 78 81 85 88 90 91 90 90 90 91 90 88 84 81 79 78 77 75 74 73 74 74 73 73 72 72 71 70 71 72 74 75 76 76 76 75 74 73 72 73 73 73 72 71 71 71 71 71 70 68 68 68 68 67 67 66 66 66 67 67 68 68 68 68 69 70 70 70 70 70 69 69 68 67 67 68 69 71 74 76 76 74 71 69 69
77 77 78 80 82 85 88 90 91 91 91 91 89 85 82 81 79 79 78 77 75 74 74 73 73 73 73 73 73 72 73 74 75 76 76 77 76 75 74 73 72 73 73 72 70 70 70 70 70 69 68 67 67 67 68 68 68 68 68 69 69 70 71 71 70 70 70 71 71 70 70 70 69 68 66 64 63 66 68 70 72 73 72 69 65 66 69
75 75 76 78 80 82 86 89 91 91 91 89 86 84 83 82 81 80 79 77 75 75 74 73 73 73 73 73 74 74 74 74 75 76 77 76 75 74 73 72 72 72 71 70 69 69 69 68 68 68 67 68 68 69 70 70 70 70 71 71 72 73 73 72 72 72 71 71 71 70 69 69 67 65 64 63 63 65 66 68 68 67 65 65 66 70 73
73 73 75 77 78 80 83 86 89 90 89 87 86 85 84 83 82 81 80 78 77 76 74 74 74 73 73 73 74 74 74 75 75 76 76 75 74 73 72 71 71 70 70 69 69 68 68 67 68 68 68 69 70 71 71 72 72 73 74 74 74 74 74 74 74 73 72 71 70 70 69 67 64 62 62 63 63 63 64 63 61 59 61 66 71 75 76
69 71 73 74 75 77 79 82 86 87 87 87 86 84 83 82 81 80 79 79 78 77 76 75 74 73 73 73 74 74 75 75 75 75 75 73 72 72 71 71 71 70 69 68 68 68 68 68 68 69 69 71 73 73 74 74 75 75 76 76 75 75 75 75 74 73 73 72 71 70 67 64 63 63 64 64 62 58 56 54 53 57 64 71 75 76 75
66 68 70 71 71 70 73 78 83 84 85 86 85 84 83 82 81 81 80 80 79 78 77 76 74 74 73 74 75 74 73 73 73 73 73 72 71 72 71 71 71 71 70 70 70 70 70 70 71 72 73 74 75 75 75 76 76 77 77 77 76 76 75 75 74 74 74 73 71 69 66 65 65 61 56 55 53 50 50 52 59 67 73 73 73 74 76
65 65 67 68 66 61 62 70 78 81 83 83 83 83 83 82 82 81 80 80 80 78 77 76 75 74 74 75 74 73 72 72 72 72 72 72 72 71 71 71 72 73 73 73 73 73 73 73 73 74 74 75 75 76 77 77 78 78 78 77 77 76 75 74 74 75 75 73 72 71 69 68 65 54 45 48 54 55 57 63 70 74 73 71 72 76 80
63 62 63 65 62 56 54 61 70 76 79 80 81 82 81 81 81 81 80 80 79 79 78 78 77 75 75 75 74 73 72 72 71 71 72 72 72 72 72 74 75 75 75 75 75 75 75 75 74 75 75 75 75 77 78 78 79 79 78 78 77 76 75 76 75 75 74 72 71 70 69 68 66 60 55 58 62 64 66 68 70 70 70 73 77 80 83
61 59 59 60 59 55 51 53 60 69 74 75 75 77 80 81 80 79 80 80 80 79 79 79 78 78 77 76 75 73 73 72 72 72 72 73 74 74 74 76 77 76 76 75 76 75 75 75 75 75 75 75 76 77 78 78 77 78 78 77 77 77 76 76 76 75 73 71 70 70 70 69 69 67 64 63 64 65 66 65 66 69 74 78 80 81 82
60 57 54 52 51 52 51 50 51 57 65 68 66 65 70 77 80 80 80 81 80 79 79 79 79 78 77 77 76 75 75 74 74 74 74 74 75 75 76 76 76 76 75 75 76 76 75 75 75 75 75 77 77 78 77 77 77 77 77 77 77 77 77 77 76 74 72 71 70 69 69 68 67 65 63 64 64 64 64 67 71 76 79 80 80 81 83
61 58 54 50 47 46 49 51 49 49 55 60 59 55 56 62 70 75 78 79 80 79 79 79 78 77 77 78 77 77 77 77 76 75 76 76 76 76 76 75 75 75 75 75 75 76 76 76 76 76 77 78 78 78 77 77 77 78 77 77 77 77 76 75 74 72 71 71 68 65 64 65 63 61 60 60 63 66 70 75 78 79 80 81 82 84 88
64 60 55 55 54 49 46 47 48 48 49 51 51 50 49 50 55 62 69 73 75 77 78 78 77 77 78 79 78 78 78 78 77 77 77 77 77 76 75 75 75 75 75 75 75 76 77 77 77 78 78 78 77 77 77 78 78 78 78 78 77 75 74 74 73 72 71 65 58 56 59 61 59 58 60 63 68 74 78 79 79 80 82 85 87 91 94
67 63 57 55 57 55 49 44 43 44 46 48 48 47 46 45 46 51 56 61 64 67 71 73 73 73 74 74 75 76 77 78 79 79 78 78 77 77 76 76 77 77 77 77 78 78 79 79 79 79 78 77 77 78 78 78 78 78 78 77 76 75 74 71 67 64 61 55 50 52 59 64 66 68 72 76 79 81 82 82 84 86 88 91 94 96 97
66 66 62 58 58 58 55 50 47 44 43 44 48 50 51 51 51 51 52 54 57 59 60 61 62 62 62 63 65 68 71 73 74 75 76 76 77 77 77 77 78 79 79 80 80 80 80 80 80 79 79 78 78 78 78 78 77 75 75 75 75 75 73 68 64 64 65 64 64 67 70 74 77 79 81 83 84 85 85 87 88 90 92 94 96 96 96
64 66 64 61 59 59 58 55 53 51 47 45 46 49 51 53 55 56 55 55 56 57 56 56 55 54 54 56 59 62 65 67 69 71 72 73 74 75 77 77 78 79 79 80 80 80 80 80 80 80 80 79 79 78 78 78 77 76 75 75 75 76 76 75 74 76 77 77 77 77 76 78 80 82 83 84 84 85 86 87 90 92 93 94 94 95 96
61 65 65 63 62 61 61 60 57 55 54 53 52 51 51 52 53 56 57 57 59 60 61 61 61 60 60 62 64 67 69 70 72 72 72 73 73 74 75 75 76 77 77 78 79 79 79 80 80 80 80 79 79 78 77 77 77 76 77 77 77 78 79 79 79 80 80 79 79 79 79 81 82 82 83 84 85 87 89 91 92 93 93 94 96 97 97
57 64 67 67 66 64 62 62 62 60 58 58 58 57 56 55 54 55 56 56 58 63 66 67 68 69 70 70 70 71 71 70 70 70 70 71 71 72 73 73 74 75 76 77 78 78 79 80 79 79 78 77 76 75 75 76 77 77 77 78 79 80 81 81 81 81 81 80 80 81 82 82 83 85 87 88 90 92 92 92 93 93 95 96 97 97 95
50 57 66 68 66 61 56 56 59 60 60 60 59 58 58 58 58 60 61 61 60 62 64 65 66 67 67 68 68 68 68 68 68 69 70 71 72 72 73 73 74 74 74 74 74 75 75 76 76 75 75 74 74 74 75 77 77 78 78 79 80 81 82 82 82 82 81 81 82 83 84 85 87 89 90 91 92 92 92 93 94 96 97 97 95 92 89
45 50 62 68 64 58 53 52 55 57 57 56 55 55 56 58 61 63 66 66 66 65 65 65 66 66 65 65 66 67 67 68 69 70 71 71 71 71 71 71 71 70 69 69 68 69 70 71 72 73 74 75 75 76 77 78 79 79 80 81 82 82 82 82 82 82 82 82 83 84 86 87 88 89 90 91 91 92 93 94 95 96 95 93 90 86 84
50 47 55 64 64 61 58 56 55 55 53 51 51 52 55 60 65 67 66 64 64 65 65 65 66 66 64 63 63 63 64 65 66 67 67 66 65 65 66 66 67 66 66 66 67 68 70 71 73 75 76 77 78 78 79 79 80 80 79 79 79 80 80 81 81 82 82 82 83 84 86 87 88 89 90 91 92 93 94 95 94 93 91 88 85 84 84
57 50 50 57 61 62 61 58 56 57 56 53 50 52 55 60 66 70 70 68 66 65 64 63 63 63 63 63 64 65 65 65 65 64 62 61 62 63 65 65 65 66 67 68 71 72 74 75 76 77 78 78 79 79 79 79 79 78 77 76 77 79 80 81 81 82 82 82 83 84 86 87 88 90 91 92 93 93 92 91 89 88 86 85 85 86 87
60 56 53 54 57 60 61 60 58 60 62 60 58 57 58 60 62 65 68 70 70 69 67 66 66 66 66 67 68 69 69 68 66 65 63 64 65 65 65 65 66 67 70 72 74 76 77 78 78 79 79 79 79 79 79 79 79 79 79 80 80 81 82 81 81 81 82 83 84 85 86 88 89 90 91 90 90 88 87 85 84 85 85 86 87 89 90
60 62 59 59 59 59 62 64 64 63 63 63 62 62 63 63 62 62 63 66 68 70 70 70 70 70 71 71 72 71 70 69 67 67 68 69 68 67 66 66 69 71 74 75 76 77 78 78 78 79 80 80 80 80 80 80 80 80 81 81 82 82 82 82 82 82 82 84 85 85 86 87 87 87 86 85 84 83 83 83 84 86 87 88 90 91 93
62 65 65 64 64 63 63 66 69 69 67 65 66 66 66 65 63 61 60 60 63 67 70 71 71 71 72 72 71 70 69 68 68 68 68 67 66 66 68 71 73 75 76 77 78 79 79 79 79 79 79 80 80 80 80 80 80 80 80 81 82 82 82 82 82 81 82 83 83 83 83 83 84 83 82 82 82 82 83 85 87 89 90 92 93 94 95
66 69 69 69 70 69 67 68 71 74 74 72 71 69 68 67 66 64 62 61 61 64 69 72 72 72 73 73 72 71 69 68 67 67 66 65 66 68 72 75 76 78 79 79 79 79 78 78 78 78 78 78 79 79 79 79 79 79 79 80 80 80 80 80 79 79 79 79 80 80 80 80 81 82 83 83 84 85 87 88 90 92 93 94 95 96 96
69 71 71 71 72 73 72 72 73 76 78 79 78 76 73 71 71 71 70 68 67 66 68 71 73 74 75 75 75 73 71 69 67 67 66 68 70 74 77 78 78 79 79 78 78 77 76 76 76 76 76 77 77 77 77 76 76 76 76 76 76 76 77 77 76 76 77 77 78 79 79 81 82 84 85 87 88 90 91 92 93 94 95 96 96 95 94
71 73 73 71 70 71 73 74 75 77 78 80 81 81 78 75 74 75 75 74 72 71 70 72 73 74 75 75 75 74 72 71 70 70 71 74 77 78 78 77 77 76 75 74 74 74 74 74 74 74 74 74 74 73 72 72 71 72 72 72 72 73 75 76 76 77 78 79 80 81 83 84 86 87 89 90 92 93 94 95 95 96 95 95 93 91 89
69 71 72 70 69 69 71 74 77 78 79 79 80 80 78 77 76 75 75 75 75 75 74 74 74 74 75 76 76 75 74 74 74 75 77 78 78 76 74 73 72 71 71 71 71 71 71 71 70 70 70 70 69 69 69 69 69 69 70 71 72 73 75 77 78 79 81 82 84 85 87 89 90 91 92 93 94 95 95 96 95 94 93 91 88 85 80
66 68 70 70 70 70 72 74 77 79 80 80 80 80 80 80 79 78 76 75 75 76 76 75 76 76 77 78 78 77 77 77 78 78 77 75 73 70 69 68 68 68 68 68 68 68 68 68 68 68 68 68 68 68 68 69 69 70 72 73 74 75 77 79 81 82 84 86 88 89 91 92 93 94 94 95 95 95 94 93 91 89 86 83 79 74 70
68 68 69 69 70 71 73 75 77 79 81 82 83 83 82 82 83 82 81 80 80 80 79 78 77 77 77 77 78 78 78 78 76 74 71 69 68 67 66 66 66 66 66 66 66 66 67 67 68 68 68 69 69 70 71 71 72 74 75 76 77 79 81 82 84 86 88 89 90 92 93 93 94 94 94 94 93 91 89 86 83 80 77 73 69 65 62
73 72 71 71 71 72 72 73 75 77 79 81 82 83 84 84 83 83 82 82 82 81 79 77 75 75 75 76 77 77 75 73 70 68 67 66 66 66 66 66 66 66 66 66 67 67 68 69 69 70 71 71 72 73 74 75 76 78 79 80 82 83 85 86 87 89 90 91 92 92 93 93 92 91 90 88 85 83 80 76 73 70 67 64 61 58 56
79 77 76 75 75 75 75 75 75 76 77 77 77 77 77 77 76 75 75 75 75 75 75 75 76 76 76 75 74 72 69 67 66 65 65 66 66 66 67 67 67 68 68 68 69 70 71 72 72 73 74 75 76 77 78 79 80 82 83 84 85 86 87 88 89 89 90 90 90 89 88 87 85 83 81 78 75 72 69 67 64 62 59 57 55 53 51
80 80 79 79 79 79 78 77 78 78 78 77 76 75 75 74 73 73 73 73 74 74 75 76 75 74 72 70 68 66 65 65 65 66 66 67 68 68 68 69 70 70 71 72 72 73 74 75 76 77 78 79 80 81 82 83 84 85 85 86 87 87 87 88 88 88 87 86 84 82 80 78 76 73 70 68 65 63 61 59 57 55 53 52 50 48 47
80 81 82 82 82 81 79 78 79 80 80 79 78 77 76 75 74 74 74 74 74 74 74 72 71 69 67 66 65 65 65 66 67 68 68 69 70 70 71 71 72 73 74 75 76 77 78 79 80 81 82 82 83 84 84 85 85 86 86 87 87 87 86 85 84 82 80 78 75 73 70 68 66 63 61 59 58 56 54 53 51 49 48 47 46 44 43
77 79 81 83 83 83 82 81 81 81 81 80 79 78 78 77 77 76 75 74 73 71 69 68 67 67 66 66 66 66 67 68 69 70 70 70 71 72 73 74 74 76 77 78 79 80 82 83 83 84 85 85 85 85 85 85 86 86 86 85 84 83 81 79 77 74 71 69 66 64 62 60 58 56 55 53 52 50 48 47 45 44 43 42 42 42 42
70 73 75 78 80 81 82 82 81 81 81 81 81 79 78 77 76 74 72 70 69 68 67 67 67 67 67 67 67 68 69 70 70 71 72 72 73 75 76 77 78 79 81 81 82 83 84 85 85 85 85 85 85 85 86 85 85 84 82 81 79 77 74 71 68 65 63 60 58 57 55 53 52 50 49 47 46 44 43 42 42 41 41 41 41 41 41
67 68 69 70 71 73 75 75 76 76 76 76 75 74 73 72 71 70 69 69 69 68 68 68 68 67 68 68 69 70 71 72 72 73 75 76 77 78 80 81 82 83 83 84 84 84 85 85 85 85 85 85 85 84 83 82 81 79 77 75 72 69 65 62 59 56 54 52 51 50 48 47 45 44 43 42 42 41 41 41 41 41 40 40 40 40 40
70 70 69 69 68 68 68 68 68 68 68 68 68 69 69 69 70 70 70 70 69 69 69 69 69 70 70 71 72 73 74 75 76 77 78 80 81 82 83 84 84 84 84 85 84 84 84 84 84 85 84 83 82 81 79 77 75 73 70 66 62 59 56 53 51 49 47 46 45 44 43 43 42 42 41 41 41 41 41 41 41 40 40 39 39 39 39
67 67 67 66 66 65 65 65 65 66 67 68 69 70 70 71 71 70 70 69 69 70 70 71 72 73 73 74 75 76 77 78 79 80 81 82 83 84 84 84 84 84 84 84 84 84 84 84 83 82 81 79 77 75 73 70 67 64 60 57 53 51 49 48 46 45 43 43 42 42 42 42 42 42 41 41 40 40 40 40 40 40 40 40 40 39 39
62 63 63 64 65 65 66 66 67 67 68 68 68 68 69 69 69 69 69 70 70 71 72 73 74 75 76 77 78 79 80 80 81 82 83 83 83 83 83 83 83 83 83 83 83 83 82 81 79 77 76 73 71 68 65 61 58 55 52 50 48 47 47 46 45 44 43 42 42 42 42 41 41 41 41 41 40 40 40 41 41 42 41 41 41 40 40
61 62 63 64 64 65 65 65 66 66 66 67 67 68 69 69 70 71 71 72 73 74 75 76 77 77 78 79 79 80 80 81 82 82 82 82 82 82 82 82 82 82 82 82 81 79 78 76 74 71 69 66 63 59 56 53 51 49 47 46 46 46 45 45 44 43 42 41 41 41 40 40 41 41 41 41 41 41 41 42 42 43 43 43 43 42 42
Wind_Direction
228 228 229 230 231 232 233 233 234 235 235 236 237 238 238 237 238 237 237 238 239 239 240 242 244 246 247 250 252 254 256 258 260 262 264 265 267 268 269 270 271 273 274 275 276 278 279 281 282 283 284 285 286 287 288 289 291 293 294 295 295 296 296 297 299 301 303 308 310 305 300 299 298 297 298 298 295 292 291 292 293 295 297 298 299 300 300
227 228 229 230 230 231 232 233 234 235 236 236 237 237 237 237 237 236 235 237 239 240 242 243 245 247 248 250 252 255 256 258 259 261 262 264 265 266 267 269 270 272 273 274 276 277 279 280 281 282 283 284 285 286 288 290 291 292 293 294 294 295 296 297 299 300 302 306 304 292 286 290 293 293 296 298 296 293 291 291 292 294 295 295 297 299 300
227 228 229 230 231 231 231 231 232 234 236 237 237 238 238 239 239 239 238 239 241 243 244 245 246 248 249 251 253 254 256 257 259 260 261 263 264 265 266 267 269 271 273 274 275 277 279 280 281 282 283 284 285 287 289 290 292 292 293 293 294 295 296 297 299 300 300 300 295 287 284 288 290 291 292 293 292 291 289 290 292 293 294 294 295 296 297
227 228 229 230 231 232 231 231 232 233 236 237 238 239 239 240 240 240 240 241 242 243 245 246 247 249 250 252 253 255 256 258 259 260 261 262 263 264 265 267 269 270 272 273 275 277 279 280 282 283 283 284 285 287 288 289 290 291 291 292 293 294 296 297 298 299 298 295 292 289 289 290 290 291 292 291 290 289 289 290 292 293 294 294 294 295 295
227 228 230 230 231 233 233 233 233 234 236 237 238 238 239 240 240 240 241 241 240 242 244 246 249 251 252 253 255 256 257 259 259 260 262 263 264 265 266 267 268 269 271 273 275 277 279 280 281 282 283 284 285 286 287 287 288 289 290 291 293 294 295 296 296 296 294 293 291 290 290 289 289 289 289 287 288 288 289 291 291 292 292 292 292 294 295
228 228 230 231 232 233 234 233 234 235 236 237 238 238 239 239 239 239 240 239 239 241 244 246 248 250 252 253 255 256 258 259 260 260 261 262 263 265 266 267 268 269 270 273 275 277 278 280 281 282 283 284 285 286 286 286 287 288 290 291 292 293 293 293 293 292 291 291 290 290 291 290 290 290 289 288 288 289 289 290 290 290 290 291 291 292 292
227 228 229 231 232 233 233 232 233 234 235 236 237 238 238 239 239 239 239 238 238 240 242 246 248 249 251 253 254 256 258 259 260 260 261 262 263 265 266 267 268 269 271 273 275 276 278 279 280 282 283 284 284 284 285 286 288 289 290 290 291 291 292 292 291 291 291 291 291 293 293 292 291 291 291 290 290 290 289 289 289 289 289 290 290 290 289
228 228 229 230 232 232 232 232 233 234 234 235 236 237 238 239 240 240 239 238 238 238 240 244 247 248 250 252 254 255 257 258 259 260 261 262 263 264 266 267 268 270 271 273 274 276 277 279 279 280 282 283 284 285 286 288 289 289 290 290 290 291 291 291 292 292 292 292 294 296 294 292 292 293 292 290 290 289 288 287 287 288 289 289 288 287 286
229 229 229 231 231 231 232 232 233 234 235 235 236 236 236 237 238 239 239 238 238 238 238 241 244 246 248 250 252 253 255 257 258 260 261 262 263 264 265 266 268 269 270 272 273 275 276 277 278 279 280 282 284 286 288 289 289 289 289 289 290 290 291 291 292 293 293 294 295 295 294 293 294 294 292 291 291 290 288 287 286 286 288 288 287 286 285
230 229 229 231 231 231 231 232 232 234 235 236 236 236 236 236 237 238 238 238 238 238 238 240 242 245 246 248 250 252 254 256 257 259 260 261 262 263 264 266 267 269 270 271 272 273 274 275 277 278 280 282 284 286 287 287 288 288 289 289 290 290 291 292 293 293 294 294 294 294 293 294 294 293 291 290 290 288 287 287 286 287 288 288 287 286 286
230 229 229 230 231 230 230 231 232 233 234 235 236 237 236 236 236 237 238 239 239 239 239 240 242 244 245 247 248 250 252 254 256 258 259 260 261 262 263 265 266 267 268 269 270 272 273 275 276 278 279 281 283 284 285 286 287 287 288 289 290 290 291 291 292 293 293 294 294 295 295 295 294 292 290 289 287 285 283 283 285 287 289 289 288 286 286
231 229 228 229 230 230 229 230 231 232 233 235 236 236 236 236 237 237 238 239 239 240 241 241 242 243 245 246 247 248 250 252 254 255 257 258 259 260 262 263 265 266 267 268 270 271 273 275 276 278 279 280 281 282 283 284 285 286 287 288 290 290 291 291 292 293 293 294 295 295 295 295 294 293 291 289 288 286 284 284 285 287 288 288 287 285 286
231 229 228 228 229 229 229 230 231 231 232 234 235 236 236 236 237 237 238 239 239 240 241 242 243 243 244 245 246 246 248 250 252 254 255 257 258 259 261 263 264 265 267 268 270 272 273 275 277 278 279 279 280 280 281 283 284 285 287 288 289 290 291 291 292 293 293 294 294 294 295 295 294 293 292 290 289 288 286 286 286 286 285 284 283 285 287
231 230 229 229 229 229 229 229 230 231 232 234 235 235 236 236 236 237 238 238 239 240 241 242 243 244 244 245 246 247 248 250 252 253 255 256 258 259 261 262 264 265 267 269 270 272 273 275 276 277 278 279 280 280 281 282 284 285 286 287 288 289 290 291 292 293 294 294 294 294 295 295 294 293 292 292 291 290 289 288 287 286 284 282 283 286 290
231 230 230 229 229 229 229 229 230 231 232 233 234 235 236 236 237 238 238 239 239 239 240 241 243 244 245 246 247 248 249 250 251 253 255 257 259 260 262 263 265 266 268 269 270 271 272 273 274 275 277 278 279 280 281 282 283 284 286 287 287 288 290 291 292 293 293 294 294 295 295 295 294 293 293 292 291 289 288 286 283 282 284 286 289 292 295
229 230 230 230 230 230 230 230 230 231 232 233 233 234 235 236 237 237 238 239 240 240 240 241 242 244 245 246 248 249 250 251 253 254 257 258 260 261 262 264 265 265 266 267 268 269 270 271 272 274 275 276 277 278 280 281 283 284 285 286 287 289 290 292 293 293 294 294 294 295 294 293 292 291 292 292 290 287 285 281 278 283 290 293 295 296 297
226 228 229 229 230 231 232 232 232 232 232 233 234 235 235 236 237 237 238 239 240 240 241 242 243 244 245 246 248 249 251 253 254 255 257 258 260 261 262 263 264 265 265 266 266 267 268 269 270 272 273 274 276 278 280 281 283 284 286 287 288 290 291 292 293 294 295 295 295 294 292 292 292 293 293 294 292 288 284 282 285 290 295 296 296 298 299
224 226 228 228 227 227 230 232 232 232 232 233 234 235 236 237 237 238 238 239 240 241 242 242 243 244 245 247 248 249 251 252 254 256 258 259 260 261 262 263 264 264 265 265 266 267 268 269 271 272 274 276 278 279 281 282 284 285 286 288 290 291 292 293 293 294 294 294 294 294 294 296 297 296 291 289 290 288 286 288 291 293 296 299 301 303 304
222 224 227 227 223 221 225 230 232 232 232 233 234 235 236 237 238 239 239 240 241 241 242 242 243 243 245 246 248 249 251 252 254 256 258 260 260 261 262 263 264 264 265 265 266 267 269 271 273 274 276 278 279 281 282 284 285 286 287 289 290 291 292 292 292 292 293 293 295 296 297 298 298 296 292 290 290 289 288 290 293 296 299 302 304 305 305
219 221 224 224 221 219 222 227 231 231 231 232 235 236 237 237 238 239 240 240 241 242 242 243 244 244 245 246 248 249 251 252 254 256 257 259 261 262 263 264 265 265 266 268 269 270 272 274 275 277 278 280 281 283 284 285 286 287 288 289 290 291 291 291 291 291 292 294 295 296 297 297 297 298 298 296 294 293 292 293 295 297 299 300 302 302 303
216 217 219 219 219 221 222 224 228 231 231 231 233 236 238 239 239 240 241 241 242 242 243 244 245 246 247 248 249 249 250 251 252 254 256 258 260 262 263 264 265 266 268 269 270 272 273 275 276 277 279 281 282 283 284 285 286 286 287 287 288 289 289 290 290 291 292 294 296 297 298 298 299 299 298 296 295 294 293 294 295 297 298 300 302 302 302
213 215 215 213 212 218 223 224 224 227 229 230 232 233 236 240 241 241 242 242 242 243 244 246 247 248 249 250 250 251 252 252 253 254 256 258 259 261 262 264 265 267 268 269 270 272 273 275 276 277 279 281 282 282 283 284 284 285 285 286 287 288 289 289 290 291 293 295 296 297 297 297 296 294 292 290 289 290 292 294 297 300 301 302 301 300 300
212 213 214 212 210 213 221 224 222 224 226 227 230 232 235 239 242 243 243 243 243 244 245 246 247 248 249 250 251 251 252 253 253 254 256 257 259 261 262 263 265 266 267 269 270 271 273 275 276 277 279 279 280 280 281 282 283 284 284 285 286 287 288 289 290 292 293 294 293 292 291 290 288 286 285 284 286 291 295 298 300 300 299 298 298 298 299
214 213 213 213 212 212 216 217 215 218 223 225 225 228 230 233 237 240 243 244 245 245 246 247 247 248 250 251 252 252 252 253 253 254 255 256 258 260 261 262 264 265 267 268 270 271 273 274 275 276 277 277 278 279 280 281 282 283 284 285 286 287 288 289 290 291 290 286 283 282 283 283 283 284 286 289 292 295 297 297 297 296 296 296 297 298 299
217 215 213 212 212 213 214 213 208 208 215 220 222 223 224 227 230 235 239 242 243 243 244 244 244 245 247 249 250 251 252 253 253 254 254 256 257 259 260 262 263 265 267 268 270 271 273 274 274 275 276 277 278 279 280 281 282 282 283 285 286 286 286 286 285 283 282 280 280 281 282 283 285 288 290 292 293 293 293 293 294 294 295 296 297 298 299
220 219 216 213 213 214 216 214 209 208 212 217 220 222 224 227 229 230 232 235 237 238 237 236 236 237 240 244 247 249 251 253 254 255 256 257 258 260 261 262 264 266 267 269 270 272 273 274 275 276 277 278 278 278 279 280 281 282 283 284 284 284 284 283 283 283 283 285 286 286 285 286 287 287 288 289 291 292 292 293 294 295 296 297 298 299 300
220 220 218 215 214 215 217 217 214 213 216 220 223 225 228 231 232 232 231 232 233 233 233 233 235 237 240 243 247 249 251 254 255 257 258 259 260 261 262 264 265 267 268 270 271 273 274 275 276 276 277 278 278 279 280 281 282 283 285 285 286 285 285 285 284 284 285 285 286 286 285 285 286 287 289 291 292 293 294 295 295 296 297 298 299 300 301
214 218 218 216 215 216 219 222 221 219 221 223 225 229 233 235 238 240 239 237 237 237 236 237 239 242 245 247 249 251 253 256 258 260 261 261 262 263 264 265 267 268 270 271 273 274 275 275 276 276 277 277 278 279 280 281 282 284 286 286 287 286 286 285 285 285 285 285 286 286 287 288 289 290 291 292 293 293 294 295 296 297 298 298 299 300 300
209 215 217 216 216 216 221 226 227 226 226 227 229 232 235 237 240 241 240 239 239 240 242 243 244 246 249 251 253 255 258 260 263 264 264 264 265 265 266 267 268 270 271 272 274 275 275 276 276 276 277 277 278 279 280 281 283 284 285 286 286 286 285 285 284 285 285 285 286 287 288 289 289 290 291 291 292 293 294 295 296 297 297 298 298 299 298
204 212 216 216 214 213 216 221 226 228 230 232 234 237 240 241 241 240 240 240 241 243 246 249 251 253 255 256 257 259 261 262 264 265 265 266 267 267 267 268 269 269 271 272 274 276 277 278 278 278 279 280 280 280 281 283 284 285 285 285 285 285 284 284 283 283 284 285 285 286 286 287 288 289 290 291 292 293 294 294 295 296 296 297 297 297 297
203 206 213 215 214 213 215 219 222 225 228 231 233 238 242 244 243 242 242 244 246 248 250 252 254 256 257 258 259 260 261 262 263 264 265 266 266 266 267 268 268 270 271 274 276 278 279 280 280 280 281 281 281 282 282 283 284 285 285 284 284 283 284 283 283 283 284 285 285 286 287 288 289 289 290 291 292 292 293 294 295 295 296 296 296 296 297
205 202 206 212 214 215 218 221 223 224 225 227 229 233 237 240 242 243 244 245 247 249 252 254 254 254 254 256 258 259 260 261 262 263 264 264 265 267 268 269 270 272 274 276 279 280 281 281 282 282 282 282 282 282 283 283 284 284 284 283 283 283 283 283 283 284 285 286 286 287 287 288 289 289 290 291 292 292 293 294 294 295 295 295 295 296 296
206 204 204 209 213 215 216 218 220 223 225 227 229 230 233 235 237 240 242 244 245 248 250 252 253 253 253 255 257 258 259 260 260 261 262 264 266 267 268 269 272 274 276 278 280 281 282 282 282 282 282 282 283 283 284 284 284 284 283 283 283 283 283 283 284 284 285 286 286 286 287 287 288 289 290 291 292 292 293 293 294 294 294 295 295 296 296
206 207 207 209 213 215 216 216 218 221 224 225 225 228 232 234 236 238 241 243 245 246 247 249 251 252 253 255 257 257 259 260 261 262 263 265 266 266 268 271 274 276 278 279 280 281 281 282 282 282 283 283 283 284 284 284 284 284 284 284 284 284 284 285 285 286 286 286 287 287 287 288 288 289 290 291 291 292 292 293 293 293 294 294 295 295 296
203 207 209 211 213 214 215 216 217 219 220 220 222 226 232 236 238 241 244 245 245 245 245 247 250 252 253 254 255 257 259 260 261 263 264 265 265 267 271 274 277 278 279 280 281 281 281 282 282 282 282 283 283 283 283 283 283 283 284 284 284 285 286 286 287 287 287 287 288 288 289 289 289 290 290 291 291 291 292 292 293 293 294 294 295 296 297
201 205 209 212 215 216 217 218 219 219 220 221 222 226 231 236 240 243 245 246 246 245 244 245 248 251 252 253 254 256 259 261 262 263 263 264 266 271 275 277 278 279 280 281 281 281 281 281 281 281 281 281 282 282 282 283 283 284 284 284 285 286 287 287 288 288 288 288 288 289 289 289 290 291 291 291 292 292 292 293 293 294 294 295 296 296 297
203 205 209 213 216 218 220 221 222 222 223 225 227 230 233 237 239 241 242 244 245 245 245 245 246 249 251 252 254 256 258 260 261 261 262 265 269 274 276 277 278 279 279 279 279 279 280 280 280 280 281 281 282 282 283 284 285 286 286 287 287 288 288 288 288 288 288 288 288 289 289 289 290 290 291 291 292 292 292 293 293 294 295 295 296 296 297
205 207 210 214 218 220 221 222 223 224 226 227 229 232 234 237 238 239 241 242 243 244 245 245 246 248 251 253 255 256 258 260 261 262 264 268 273 275 276 277 277 277 277 277 277 278 278 279 280 281 281 282 283 284 285 286 286 287 287 288 288 288 288 288 289 289 289 289 289 289 289 290 290 290 291 291 292 292 293 293 294 294 295 295 295 296 296
208 210 212 216 220 222 223 224 224 225 227 228 229 231 234 236 239 241 242 243 244 245 246 247 248 250 252 254 256 257 259 260 262 265 269 272 274 274 275 275 275 275 276 277 278 279 279 280 281 281 282 283 283 284 285 285 286 286 286 287 287 287 288 288 289 289 289 289 289 289 290 290 290 291 291 291 292 292 293 293 293 294 294 294 294 295 295
210 213 216 219 222 225 227 228 227 227 229 231 232 233 235 236 239 241 243 245 246 248 249 251 252 254 255 257 257 259 260 263 266 269 271 272 273 273 274 274 276 277 278 278 279 280 280 281 281 282 282 283 283 284 284 284 285 285 285 285 286 286 286 287 287 288 288 288 288 289 289 290 290 290 291 291 291 291 291 292 292 292 293 293 293 294 294
210 213 216 220 223 226 230 232 232 232 233 234 234 235 236 237 239 242 244 247 249 251 253 255 256 257 257 258 260 262 264 267 269 270 270 271 272 273 274 275 276 277 278 278 279 280 280 281 281 282 282 283 283 284 284 284 284 285 285 285 285 286 286 286 286 287 287 287 288 288 289 289 289 290 290 290 290 290 290 291 291 291 292 292 292 293 293
210 212 215 218 221 224 227 230 233 234 235 236 237 238 239 241 243 244 247 249 251 253 254 255 256 257 258 260 263 265 266 267 267 268 270 271 273 274 275 276 276 277 277 278 278 279 279 280 281 281 282 282 283 283 284 284 284 284 285 285 285 285 285 286 286 286 287 287 288 288 288 288 288 288 288 289 289 289 289 290 290 290 290 291 291 291 292
212 213 215 218 220 223 225 228 230 232 234 235 236 238 240 241 243 245 248 250 252 253 254 255 257 259 261 263 264 264 264 265 267 269 271 272 274 274 275 276 276 276 277 277 278 279 279 280 281 281 282 282 283 283 284 284 284 284 285 285 285 285 286 286 286 286 287 287 287 287 287 287 287 287 287 287 288 288 288 288 288 289 290 291 291 292 293
214 216 218 219 222 224 226 228 231 232 234 236 237 239 241 243 245 248 250 252 253 255 256 258 260 262 263 263 263 264 266 267 269 270 271 272 274 274 275 275 276 277 278 279 280 281 281 282 283 283 283 284 284 284 284 285 285 285 285 286 286 286 286 286 287 287 287 287 287 287 286 286 286 286 286 286 286 286 287 287 288 290 291 292 293 293 294
216 218 220 222 224 226 228 230 233 235 236 238 240 242 244 246 249 251 253 254 256 257 259 261 262 263 264 264 265 267 268 269 270 271 272 273 274 275 276 277 278 280 281 282 282 283 283 284 284 284 284 284 285 285 285 286 286 286 286 287 287 287 287 287 287 287 287 286 286 286 285 284 284 284 284 284 285 286 287 288 289 291 292 293 294 294 295
220 221 223 225 227 229 231 233 235 238 240 241 243 245 247 249 252 253 255 256 258 259 261 263 264 265 266 266 267 268 269 270 271 272 273 275 276 277 278 279 280 281 282 282 283 283 283 284 284 284 285 285 286 286 286 287 287 287 288 288 288 288 288 287 287 286 286 285 284 284 283 283 283 283 284 285 286 287 289 290 290 291 292 293 293 294 294
225 226 227 228 230 232 233 236 239 241 243 245 246 248 250 252 254 255 256 258 259 261 263 265 266 266 266 267 268 269 270 271 272 273 275 276 277 278 279 280 280 281 282 282 282 283 283 284 284 285 286 286 287 287 288 288 288 288 288 288 288 287 287 286 286 285 284 283 283 283 283 283 284 285 286 287 288 289 290 290 290 291 291 291 292 293 293
228 230 232 233 234 236 238 240 242 243 245 246 248 250 252 254 255 257 259 261 263 264 265 266 266 267 268 268 269 270 271 272 273 274 276 277 277 278 279 279 280 281 281 282 282 283 284 285 285 286 287 287 288 288 288 288 288 288 288 287 287 286 286 285 285 284 284 284 284 285 285 285 286 287 288 289 289 290 289 289 289 290 290 291 291 292 292
231 233 235 237 239 241 242 244 245 246 247 249 250 252 254 256 258 260 262 263 264 265 265 266 267 268 269 269 270 271 272 273 274 275 276 277 277 278 279 280 280 281 282 283 284 284 285 286 286 287 288 288 288 288 288 288 288 287 286 286 285 285 285 285 285 285 285 286 287 287 287 288 288 289 289 289 289 289 289 290 290 290 291 292 292 292 292
234 236 238 240 242 244 246 247 249 250 252 253 255 256 257 259 260 261 262 263 264 265 266 266 267 268 269 270 271 272 273 273 274 275 276 277 278 279 280 281 282 283 283 284 285 285 286 286 287 288 288 288 288 288 287 287 286 286 285 285 285 285 286 286 287 287 288 288 288 288 288 289 289 289 289 289 290 290 291 291 291 291 291 291 291 291 292
238 240 242 243 245 247 248 250 252 253 255 256 258 259 259 260 261 262 263 264 265 266 267 268 269 269 270 271 272 273 274 274 275 276 277 278 279 280 281 282 282 283 284 284 285 286 286 287 287 287 287 287 286 286 285 285 284 284 285 285 286 286 287 287 287 287 287 287 287 287 287 287 288 288 289 289 290 290 291 290 290 290 290 290 290 290 290
244 245 247 248 249 250 251 253 255 256 257 258 259 260 261 262 263 264 264 265 266 267 268 269 270 271 271 272 273 274 275 275 276 277 278 279 280 280 281 282 282 283 284 285 285 286 286 286 286 286 285 285 285 284 284 283 283 284 284 284 284 284 285 285 285 285 285 285 285 286 287 287 288 289 289 290 290 289 289 289 289 289 289 290 290 291 291
Height
10790 10792 10792 10794 10798 10804 10810 10816 10820 10824 10828 10833 10838 10845 10856 10861 10863 10872 10879 10878 10880 10885 10885 10885 10888 10888 10888 10889 10890 10892 10894 10896 10899 10899 10899 10900 10901 10900 10899 10898 10898 10898 10897 10896 10895 10896 10897 10899 10900 10900 10900 10900 10900 10900 10901 10901 10901 10901 10900 10900 10899 10898 10896 10894 10892 10890 10888 10889 10888 10879 10869 10864 10860 10857 10856 10856 10855 10854 10852 10851 10849 10847 10845 10842 10839 10837 10833
10779 10780 10779 10782 10787 10792 10799 10806 10811 10815 10820 10826 10831 10838 10845 10849 10854 10864 10868 10869 10874 10879 10880 10881 10882 10881 10883 10884 10885 10887 10889 10891 10893 10893 10892 10894 10894 10892 10892 10892 10892 10891 10891 10889 10889 10890 10891 10892 10893 10894 10894 10893 10893 10893 10894 10895 10895 10894 10893 10892 10891 10891 10889 10887 10886 10885 10884 10887 10887 10877 10865 10860 10857 10854 10852 10852 10851 10849 10846 10845 10843 10842 10839 10836 10833 10831 10827
10768 10770 10769 10771 10775 10781 10788 10796 10803 10807 10812 10818 10824 10831 10836 10841 10849 10857 10861 10865 10872 10875 10875 10876 10875 10875 10877 10878 10879 10882 10882 10884 10886 10886 10885 10886 10886 10884 10885 10885 10885 10885 10883 10882 10882 10884 10885 10885 10885 10886 10887 10887 10886 10887 10888 10888 10887 10886 10885 10883 10883 10883 10882 10880 10879 10879 10879 10880 10877 10868 10860 10857 10854 10849 10847 10846 10844 10842 10839 10837 10836 10834 10832 10829 10826 10824 10820
10757 10759 10758 10761 10766 10771 10777 10787 10795 10800 10805 10811 10819 10825 10830 10836 10844 10850 10854 10862 10870 10870 10867 10867 10867 10868 10870 10872 10873 10875 10875 10877 10879 10878 10878 10879 10877 10876 10878 10879 10879 10879 10876 10875 10876 10878 10879 10878 10877 10877 10877 10878 10879 10881 10882 10882 10881 10879 10877 10876 10875 10875 10875 10873 10872 10872 10871 10870 10866 10861 10856 10852 10848 10844 10842 10840 10837 10834 10832 10830 10828 10826 10824 10821 10818 10816 10813
10748 10748 10748 10754 10758 10760 10770 10784 10794 10798 10801 10806 10811 10816 10822 10829 10835 10840 10847 10857 10864 10862 10859 10860 10861 10862 10864 10866 10867 10868 10869 10871 10872 10871 10870 10871 10869 10868 10870 10871 10872 10872 10870 10869 10871 10872 10872 10872 10871 10869 10868 10869 10872 10874 10875 10875 10874 10872 10870 10868 10868 10868 10867 10867 10866 10865 10863 10860 10857 10854 10850 10846 10843 10840 10836 10833 10831 10828 10825 10823 10821 10818 10816 10814 10811 10808 10805
10738 10739 10742 10747 10750 10756 10771 10786 10792 10792 10794 10798 10802 10808 10814 10820 10825 10831 10841 10849 10853 10854 10854 10854 10854 10855 10857 10858 10859 10861 10862 10864 10865 10864 10863 10862 10861 10861 10862 10864 10865 10865 10864 10865 10866 10866 10866 10866 10864 10862 10861 10861 10863 10865 10865 10866 10867 10866 10864 10862 10861 10861 10861 10861 10860 10858 10855 10852 10848 10845 10843 10840 10837 10834 10830 10828 10826 10823 10819 10817 10814 10812 10809 10806 10804 10801 10799
10727 10731 10736 10739 10743 10753 10769 10778 10779 10779 10783 10787 10792 10798 10805 10811 10817 10824 10833 10840 10844 10847 10847 10846 10845 10847 10849 10850 10853 10855 10856 10856 10856 10856 10855 10854 10853 10854 10855 10856 10857 10859 10859 10860 10860 10860 10860 10859 10857 10854 10854 10853 10853 10854 10856 10858 10860 10859 10858 10856 10855 10854 10854 10853 10852 10850 10847 10843 10840 10838 10836 10834 10830 10828 10825 10822 10820 10817 10813 10809 10807 10804 10802 10799 10797 10794 10792
10719 10724 10728 10731 10737 10750 10761 10767 10767 10769 10773 10777 10782 10789 10797 10805 10811 10818 10825 10830 10834 10837 10838 10837 10836 10838 10841 10843 10846 10847 10848 10848 10848 10847 10847 10846 10846 10847 10847 10848 10851 10853 10853 10853 10853 10853 10852 10851 10849 10847 10847 10846 10845 10846 10848 10850 10852 10852 10851 10849 10848 10848 10847 10845 10844 10842 10838 10835 10833 10830 10827 10825 10824 10822 10819 10815 10813 10810 10805 10802 10799 10796 10794 10792 10789 10787 10784
10711 10717 10721 10725 10733 10745 10754 10758 10760 10762 10765 10770 10774 10780 10789 10796 10802 10808 10815 10820 10823 10826 10829 10828 10827 10829 10832 10835 10838 10839 10840 10840 10839 10839 10838 10837 10839 10840 10839 10841 10845 10846 10845 10845 10846 10846 10845 10843 10841 10840 10840 10840 10839 10839 10840 10841 10842 10842 10842 10841 10840 10840 10839 10837 10836 10834 10830 10827 10826 10822 10818 10818 10817 10815 10811 10807 10805 10802 10797 10793 10791 10789 10786 10784 10781 10779 10776
10702 10710 10716 10720 10727 10738 10745 10748 10752 10754 10757 10761 10765 10771 10779 10787 10793 10799 10805 10809 10813 10817 10819 10819 10819 10821 10824 10827 10829 10830 10831 10831 10830 10830 10829 10829 10830 10830 10831 10834 10837 10837 10837 10837 10838 10838 10837 10835 10835 10835 10835 10834 10833 10833 10832 10832 10833 10833 10833 10833 10832 10832 10831 10829 10828 10826 10822 10820 10818 10814 10812 10812 10810 10807 10804 10800 10797 10794 10790 10786 10784 10782 10779 10776 10773 10770 10768
10693 10702 10709 10713 10719 10728 10735 10738 10743 10746 10748 10752 10755 10761 10771 10780 10786 10790 10795 10800 10804 10808 10810 10810 10812 10814 10816 10819 10821 10822 10822 10822 10821 10820 10819 10820 10821 10822 10823 10827 10829 10829 10829 10830 10830 10831 10831 10830 10829 10829 10829 10829 10828 10827 10825 10825 10825 10824 10824 10824 10824 10823 10822 10821 10820 10818 10815 10813 10810 10807 10805 10804 10802 10800 10798 10795 10791 10787 10783 10780 10777 10775 10772 10768 10765 10762 10759
10684 10693 10701 10705 10709 10717 10724 10729 10734 10737 10739 10741 10744 10753 10765 10774 10779 10782 10786 10791 10796 10799 10800 10802 10805 10807 10808 10810 10812 10813 10813 10811 10810 10810 10810 10811 10813 10814 10817 10820 10821 10821 10821 10822 10823 10824 10824 10824 10823 10822 10823 10823 10822 10820 10819 10817 10817 10816 10816 10816 10816 10815 10814 10813 10813 10811 10808 10805 10802 10800 10797 10795 10794 10792 10789 10787 10784 10780 10777 10774 10770 10767 10764 10760 10757 10754 10752
10676 10685 10693 10696 10700 10707 10714 10720 10724 10726 10729 10733 10740 10751 10761 10767 10770 10773 10776 10780 10785 10789 10791 10794 10796 10798 10799 10800 10802 10803 10803 10802 10801 10802 10802 10803 10806 10808 10811 10813 10814 10814 10814 10816 10818 10817 10817 10817 10816 10816 10816 10815 10814 10813 10811 10810 10810 10809 10809 10809 10808 10806 10805 10804 10804 10802 10801 10798 10795 10793 10791 10788 10785 10783 10780 10779 10776 10772 10768 10766 10762 10757 10754 10751 10749 10746 10744
10668 10677 10684 10689 10692 10697 10703 10709 10714 10717 10723 10730 10738 10745 10751 10755 10759 10763 10766 10771 10775 10778 10782 10785 10786 10788 10791 10792 10793 10794 10795 10795 10795 10794 10794 10797 10800 10803 10805 10807 10808 10808 10808 10810 10811 10810 10811 10810 10809 10808 10807 10807 10806 10804 10803 10803 10803 10802 10802 10801 10800 10798 10797 10796 10795 10793 10792 10790 10787 10785 10784 10781 10778 10775 10772 10769 10767 10762 10759 10756 10752 10748 10745 10742 10741 10738 10735
10662 10669 10676 10681 10685 10689 10696 10702 10706 10711 10718 10725 10731 10736 10740 10745 10751 10755 10758 10761 10765 10768 10772 10775 10777 10780 10783 10784 10785 10786 10787 10788 10788 10788 10789 10792 10795 10797 10799 10800 10801 10802 10802 10803 10803 10802 10803 10802 10801 10800 10800 10799 10797 10796 10796 10796 10796 10795 10794 10794 10792 10791 10789 10787 10786 10784 10783 10781 10779 10777 10776 10773 10770 10767 10764 10760 10757 10753 10749 10745 10742 10740 10737 10734 10731 10728 10724
10655 10662 10668 10674 10679 10685 10691 10695 10700 10706 10712 10717 10723 10727 10732 10737 10743 10747 10750 10752 10755 10759 10763 10766 10769 10773 10775 10775 10776 10778 10779 10780 10783 10784 10785 10787 10789 10791 10792 10793 10794 10794 10795 10795 10794 10793 10793 10793 10793 10793 10792 10790 10789 10788 10788 10788 10787 10786 10785 10785 10784 10783 10781 10779 10776 10774 10772 10772 10770 10768 10767 10765 10763 10760 10755 10751 10748 10744 10739 10736 10734 10732 10730 10727 10722 10718 10715
10648 10655 10662 10669 10676 10682 10686 10689 10694 10700 10705 10710 10716 10721 10724 10729 10734 10738 10741 10743 10746 10750 10754 10758 10761 10764 10766 10767 10769 10771 10773 10775 10777 10778 10779 10781 10782 10783 10783 10784 10784 10784 10785 10785 10785 10785 10785 10785 10785 10785 10784 10782 10782 10781 10781 10780 10779 10778 10777 10776 10775 10774 10772 10770 10767 10763 10761 10761 10759 10758 10757 10757 10755 10752 10747 10742 10740 10737 10733 10729 10726 10724 10721 10718 10714 10709 10705
10642 10649 10656 10664 10671 10676 10679 10681 10687 10693 10698 10703 10709 10713 10717 10722 10726 10729 10733 10735 10738 10742 10746 10749 10752 10755 10757 10758 10761 10764 10766 10767 10768 10770 10771 10772 10773 10774 10774 10774 10774 10774 10775 10776 10776 10776 10777 10777 10777 10776 10776 10775 10775 10773 10772 10771 10770 10768 10767 10767 10766 10765 10763 10760 10757 10754 10752 10750 10748 10746 10745 10745 10746 10745 10741 10736 10732 10730 10726 10721 10717 10714 10711 10708 10704 10699 10694
10638 10644 10650 10658 10666 10670 10671 10674 10679 10685 10690 10696 10700 10704 10709 10713 10717 10721 10725 10727 10730 10733 10736 10739 10742 10745 10748 10749 10752 10755 10758 10760 10762 10762 10762 10762 10763 10764 10765 10764 10763 10764 10766 10767 10767 10768 10768 10768 10768 10768 10768 10767 10766 10764 10763 10762 10761 10759 10758 10757 10756 10755 10753 10750 10748 10746 10743 10740 10738 10735 10733 10733 10735 10735 10734 10730 10725 10720 10717 10713 10709 10705 10702 10699 10695 10691 10686
10633 10639 10645 10652 10659 10663 10666 10670 10674 10678 10684 10689 10693 10697 10701 10705 10709 10712 10715 10718 10721 10724 10727 10730 10733 10736 10739 10742 10745 10747 10750 10752 10753 10754 10754 10753 10754 10755 10756 10755 10754 10755 10757 10758 10758 10759 10760 10760 10759 10759 10758 10758 10757 10756 10754 10753 10752 10750 10749 10747 10746 10745 10743 10741 10739 10736 10734 10731 10728 10726 10724 10723 10723 10722 10722 10720 10716 10711 10708 10705 10701 10698 10694 10691 10688 10684 10679
10628 10634 10640 10647 10654 10658 10661 10666 10669 10673 10678 10684 10688 10691 10693 10697 10701 10704 10706 10709 10714 10717 10720 10723 10726 10729 10732 10735 10737 10739 10741 10743 10745 10746 10746 10746 10746 10746 10746 10745 10746 10747 10748 10749 10749 10750 10751 10751 10750 10750 10749 10748 10748 10747 10746 10744 10743 10741 10740 10738 10737 10735 10734 10731 10728 10726 10724 10722 10720 10717 10714 10712 10711 10711 10710 10707 10704 10701 10698 10695 10692 10688 10684 10681 10678 10675 10671
10624 10629 10635 10642 10647 10652 10656 10660 10664 10669 10673 10677 10682 10685 10688 10691 10693 10695 10698 10702 10706 10710 10713 10716 10719 10723 10725 10726 10728 10730 10732 10734 10736 10737 10738 10738 10737 10737 10737 10736 10737 10738 10739 10740 10741 10741 10742 10742 10741 10741 10740 10739 10738 10738 10737 10735 10733 10731 10730 10729 10728 10726 10724 10722 10719 10716 10715 10713 10711 10708 10706 10703 10701 10700 10699 10696 10693 10690 10688 10685 10682 10678 10675 10671 10668 10665 10662
10617 10623 10629 10635 10640 10645 10650 10655 10661 10665 10669 10672 10676 10679 10683 10686 10687 10688 10691 10694 10698 10701 10704 10707 10711 10714 10715 10716 10718 10720 10722 10724 10726 10728 10729 10729 10729 10729 10729 10728 10728 10729 10730 10731 10732 10733 10733 10733 10733 10732 10732 10731 10729 10728 10727 10725 10723 10722 10720 10720 10719 10717 10714 10712 10710 10708 10706 10705 10703 10700 10697 10694 10692 10691 10689 10687 10684 10681 10678 10675 10672 10670 10667 10663 10659 10656 10651
10612 10618 10625 10630 10635 10640 10645 10650 10656 10661 10665 10668 10671 10674 10678 10681 10683 10684 10686 10688 10691 10694 10696 10698 10701 10703 10704 10706 10709 10710 10712 10714 10716 10718 10720 10720 10720 10721 10721 10720 10720 10721 10722 10723 10724 10724 10724 10724 10724 10723 10723 10722 10720 10719 10717 10715 10713 10711 10709 10709 10709 10707 10705 10704 10702 10699 10698 10698 10697 10693 10688 10684 10682 10681 10679 10677 10674 10671 10668 10665 10663 10660 10656 10652 10648 10644 10640
10609 10615 10620 10625 10630 10635 10640 10644 10650 10655 10659 10662 10666 10669 10672 10675 10677 10679 10681 10683 10685 10687 10689 10690 10692 10694 10696 10698 10699 10700 10702 10704 10707 10709 10711 10711 10712 10712 10713 10712 10713 10713 10713 10714 10714 10715 10715 10714 10714 10713 10713 10712 10710 10709 10707 10705 10703 10701 10700 10699 10698 10697 10696 10696 10694 10691 10689 10689 10688 10686 10682 10677 10674 10672 10669 10666 10664 10661 10658 10655 10652 10648 10645 10641 10637 10633 10628
10605 10611 10616 10621 10625 10630 10635 10640 10644 10648 10653 10656 10659 10662 10665 10668 10670 10673 10675 10677 10678 10680 10682 10683 10684 10686 10689 10690 10691 10692 10694 10695 10698 10700 10701 10702 10703 10703 10703 10704 10704 10704 10705 10705 10705 10704 10704 10703 10703 10702 10702 10701 10700 10699 10697 10695 10694 10692 10691 10690 10689 10687 10685 10684 10682 10679 10677 10676 10674 10672 10671 10668 10665 10662 10659 10656 10653 10650 10647 10644 10641 10637 10633 10630 10625 10621 10617
10601 10606 10611 10616 10620 10624 10629 10633 10637 10642 10646 10650 10653 10655 10658 10660 10663 10665 10668 10670 10671 10672 10673 10675 10676 10678 10680 10681 10682 10683 10685 10687 10689 10691 10693 10694 10694 10694 10695 10695 10695 10695 10695 10695 10694 10694 10693 10692 10692 10692 10691 10690 10689 10689 10688 10686 10684 10683 10681 10680 10679 10676 10673 10672 10670 10668 10666 10663 10661 10659 10657 10655 10653 10650 10647 10645 10642 10639 10635 10632 10629 10625 10622 10618 10614 10609 10604
10595 10600 10605 10609 10614 10619 10623 10627 10632 10636 10639 10643 10646 10648 10650 10653 10655 10658 10661 10664 10663 10662 10664 10667 10668 10670 10672 10673 10675 10676 10678 10680 10682 10683 10684 10685 10685 10686 10687 10687 10687 10686 10686 10685 10685 10684 10683 10682 10681 10681 10681 10680 10680 10679 10677 10676 10674 10673 10671 10669 10667 10664 10661 10659 10657 10655 10653 10651 10648 10646 10644 10642 10640 10637 10635 10632 10629 10627 10624 10621 10617 10614 10610 10606 10602 10598 10593
10591 10596 10599 10604 10610 10617 10622 10626 10628 10631 10633 10636 10639 10641 10643 10647 10649 10649 10651 10653 10653 10654 10656 10659 10661 10664 10666 10668 10669 10670 10671 10672 10673 10674 10675 10676 10677 10677 10678 10678 10678 10678 10677 10676 10675 10673 10672 10671 10671 10670 10670 10670 10670 10668 10667 10665 10664 10663 10661 10659 10657 10654 10651 10649 10646 10644 10642 10639 10636 10634 10632 10630 10628 10625 10623 10620 10618 10615 10612 10609 10605 10602 10598 10595 10591 10587 10582
10586 10590 10594 10599 10606 10613 10617 10620 10622 10625 10628 10631 10634 10637 10639 10640 10640 10638 10639 10643 10645 10647 10649 10652 10654 10657 10659 10660 10662 10662 10663 10664 10664 10665 10666 10667 10668 10668 10669 10669 10669 10668 10668 10667 10665 10664 10662 10661 10660 10659 10659 10659 10658 10657 10655 10654 10653 10651 10649 10647 10646 10644 10641 10639 10636 10633 10631 10628 10626 10624 10621 10619 10617 10614 10612 10610 10607 10604 10601 10598 10594 10590 10587 10584 10580 10577 10572
10581 10585 10590 10596 10602 10607 10610 10613 10617 10621 10624 10628 10631 10633 10633 10632 10630 10629 10632 10636 10639 10641 10643 10645 10647 10649 10651 10652 10653 10654 10654 10655 10655 10656 10657 10658 10659 10659 10659 10659 10659 10659 10659 10658 10656 10655 10653 10652 10650 10650 10649 10648 10646 10645 10644 10643 10642 10640 10638 10637 10635 10633 10631 10628 10625 10623 10621 10618 10616 10613 10610 10608 10606 10603 10600 10598 10595 10592 10589 10586 10582 10579 10575 10572 10569 10566 10562
10576 10580 10586 10592 10597 10601 10606 10610 10613 10616 10619 10622 10624 10625 10625 10624 10623 10623 10625 10629 10631 10634 10636 10638 10640 10641 10643 10643 10644 10644 10645 10646 10647 10648 10649 10650 10651 10651 10650 10650 10650 10649 10649 10648 10647 10646 10644 10642 10641 10640 10638 10637 10635 10634 10632 10631 10630 10628 10627 10626 10624 10622 10620 10618 10615 10613 10611 10608 10606 10603 10600 10598 10595 10591 10589 10586 10583 10580 10577 10574 10570 10567 10564 10562 10559 10556 10552
10570 10575 10581 10586 10590 10594 10599 10603 10606 10608 10610 10612 10614 10615 10615 10615 10615 10616 10618 10621 10624 10627 10629 10631 10632 10634 10635 10635 10635 10636 10636 10637 10639 10640 10641 10642 10642 10642 10642 10641 10640 10640 10640 10639 10638 10636 10635 10633 10631 10629 10627 10625 10625 10623 10622 10620 10618 10617 10615 10615 10613 10610 10607 10606 10605 10603 10601 10598 10595 10593 10590 10586 10583 10580 10577 10575 10572 10569 10566 10563 10560 10557 10554 10551 10548 10545 10541
10565 10570 10574 10578 10582 10586 10590 10593 10596 10598 10601 10603 10605 10606 10606 10607 10608 10609 10611 10614 10616 10619 10622 10624 10625 10626 10626 10627 10627 10628 10629 10630 10631 10632 10633 10633 10633 10634 10633 10632 10632 10631 10630 10629 10628 10627 10626 10624 10622 10620 10616 10614 10613 10612 10611 10609 10608 10606 10604 10602 10600 10597 10595 10594 10594 10592 10589 10586 10583 10581 10578 10575 10572 10569 10567 10564 10561 10558 10555 10552 10549 10546 10543 10541 10537 10534 10530
10560 10564 10568 10571 10575 10578 10581 10584 10587 10590 10592 10595 10597 10598 10599 10600 10601 10604 10606 10607 10610 10612 10614 10616 10617 10617 10618 10619 10620 10621 10622 10623 10624 10624 10624 10624 10624 10624 10624 10623 10622 10621 10620 10619 10618 10616 10615 10614 10612 10609 10607 10604 10602 10601 10599 10598 10597 10595 10593 10590 10587 10585 10583 10582 10581 10579 10576 10574 10571 10568 10565 10562 10559 10557 10555 10553 10551 10548 10545 10542 10539 10535 10532 10529 10526 10522 10518
10554 10558 10561 10564 10567 10571 10574 10577 10580 10582 10584 10587 10589 10591 10593 10595 10597 10598 10600 10601 10603 10604 10606 10607 10608 10609 10610 10611 10612 10613 10614 10615 10615 10616 10616 10616 10616 10615 10615 10614 10613 10611 10610 10608 10607 10605 10604 10603 10601 10599 10597 10594 10592 10590 10588 10587 10586 10584 10581 10578 10576 10574 10571 10570 10568 10566 10564 10561 10559 10556 10554 10551 10548 10545 10543 10541 10538 10536 10533 10530 10527 10523 10520 10517 10513 10509 10505
10547 10551 10554 10558 10561 10564 10567 10570 10573 10576 10578 10581 10583 10585 10587 10589 10590 10591 10592 10593 10594 10596 10597 10599 10600 10601 10602 10604 10605 10606 10606 10607 10607 10608 10608 10608 10608 10607 10606 10605 10603 10602 10600 10599 10597 10595 10594 10592 10590 10588 10585 10583 10581 10579 10578 10576 10574 10571 10568 10566 10565 10562 10559 10557 10556 10554 10552 10550 10547 10545 10542 10540 10537 10534 10531 10529 10526 10523 10520 10517 10514 10511 10507 10504 10500 10497 10493
10541 10545 10549 10553 10556 10558 10561 10564 10566 10569 10572 10574 10576 10578 10580 10581 10582 10582 10584 10585 10587 10588 10590 10591 10592 10594 10595 10596 10597 10598 10598 10599 10599 10600 10600 10600 10599 10598 10597 10595 10594 10592 10591 10589 10588 10586 10584 10582 10579 10577 10575 10572 10570 10569 10568 10566 10564 10561 10559 10557 10555 10552 10548 10546 10545 10543 10540 10538 10535 10533 10530 10527 10524 10522 10519 10517 10514 10511 10508 10505 10501 10498 10495 10492 10488 10485 10481
10537 10542 10545 10548 10550 10553 10555 10556 10559 10562 10564 10567 10569 10571 10573 10574 10574 10575 10577 10578 10580 10582 10583 10584 10586 10587 10588 10589 10589 10590 10590 10591 10591 10591 10591 10591 10590 10589 10588 10586 10584 10582 10581 10579 10577 10575 10573 10571 10569 10567 10565 10563 10561 10560 10559 10558 10556 10553 10550 10548 10546 10543 10540 10537 10534 10532 10529 10526 10524 10521 10518 10515 10512 10509 10507 10504 10501 10498 10495 10492 10489 10486 10483 10480 10476 10473 10470
10534 10538 10541 10543 10546 10548 10549 10550 10553 10555 10558 10560 10562 10564 10565 10566 10567 10568 10570 10571 10573 10575 10577 10578 10579 10580 10581 10581 10581 10582 10582 10582 10582 10582 10581 10581 10580 10579 10578 10576 10574 10572 10571 10568 10566 10564 10562 10560 10559 10557 10556 10554 10553 10551 10550 10548 10546 10544 10541 10539 10537 10534 10531 10528 10525 10522 10519 10516 10512 10509 10506 10503 10500 10497 10494 10491 10488 10485 10483 10480 10477 10474 10471 10468 10465 10463 10460
10527 10531 10534 10537 10540 10542 10544 10545 10547 10549 10551 10553 10555 10556 10558 10559 10561 10562 10563 10565 10566 10568 10569 10571 10572 10573 10573 10573 10573 10573 10573 10573 10573 10572 10571 10570 10569 10568 10567 10566 10564 10563 10561 10559 10557 10555 10553 10551 10549 10547 10546 10545 10543 10542 10540 10538 10536 10534 10532 10529 10527 10524 10521 10518 10515 10512 10508 10505 10502 10498 10495 10492 10489 10485 10482 10479 10476 10473 10471 10468 10466 10463 10460 10457 10455 10453 10450
10520 10524 10527 10530 10533 10535 10537 10538 10540 10542 10544 10546 10548 10550 10552 10554 10555 10556 10558 10558 10560 10561 10562 10563 10564 10564 10565 10565 10565 10564 10564 10563 10563 10562 10561 10559 10558 10558 10557 10556 10554 10553 10551 10550 10548 10546 10544 10542 10540 10539 10537 10536 10534 10532 10530 10528 10525 10523 10521 10518 10516 10513 10510 10507 10504 10500 10497 10494 10490 10487 10484 10480 10477 10473 10470 10467 10464 10462 10460 10457 10455 10452 10450 10448 10446 10444 10442
10515 10518 10521 10523 10525 10527 10529 10531 10533 10535 10537 10539 10541 10543 10545 10547 10549 10550 10551 10552 10553 10553 10554 10555 10555 10556 10556 10556 10555 10555 10554 10553 10553 10552 10551 10549 10548 10547 10546 10545 10544 10542 10541 10540 10538 10536 10535 10533 10531 10529 10528 10526 10524 10522 10520 10517 10515 10512 10510 10507 10504 10501 10498 10495 10492 10489 10485 10482 10479 10475 10472 10468 10465 10462 10459 10456 10454 10451 10449 10447 10445 10443 10441 10439 10437 10435 10433
10509 10512 10515 10516 10518 10520 10522 10524 10526 10528 10530 10532 10534 10537 10539 10540 10542 10543 10544 10544 10545 10545 10545 10545 10546 10546 10546 10545 10545 10545 10544 10543 10542 10542 10541 10540 10538 10537 10536 10535 10533 10532 10530 10529 10527 10526 10524 10522 10520 10518 10517 10515 10513 10511 10508 10506 10503 10500 10497 10495 10492 10489 10486 10483 10479 10476 10473 10469 10466 10463 10460 10457 10454 10451 10449 10446 10444 10442 10440 10438 10436 10434 10432 10430 10428 10426 10425
10503 10506 10508 10510 10512 10514 10516 10518 10520 10522 10524 10526 10528 10530 10532 10533 10534 10535 10535 10536 10536 10536 10536 10536 10535 10535 10535 10535 10535 10534 10534 10533 10532 10531 10530 10529 10528 10527 10526 10525 10523 10522 10520 10518 10516 10514 10512 10510 10508 10506 10505 10503 10501 10499 10496 10493 10491 10488 10484 10481 10478 10475 10472 10469 10466 10463 10460 10457 10454 10451 10448 10446 10443 10441 10439 10437 10435 10434 10432 10430 10428 10426 10424 10422 10420 10419 10417
10499 10501 10503 10504 10506 10509 10511 10513 10514 10516 10518 10519 10521 10523 10524 10525 10526 10526 10526 10527 10527 10527 10526 10526 10526 10525 10525 10525 10524 10524 10523 10523 10521 10520 10519 10519 10518 10516 10515 10514 10513 10511 10510 10508 10506 10504 10501 10499 10497 10495 10493 10491 10488 10486 10483 10480 10477 10474 10471 10468 10464 10461 10459 10456 10453 10451 10448 10445 10443 10440 10438 10436 10434 10432 10430 10428 10427 10425 10424 10422 10421 10419 10418 10416 10414 10412 10411
10494 10496 10498 10499 10501 10503 10505 10507 10509 10510 10511 10512 10514 10515 10516 10516 10517 10517 10517 10518 10518 10518 10517 10516 10516 10515 10515 10515 10515 10514 10513 10513 10512 10510 10509 10508 10507 10506 10504 10503 10502 10500 10499 10497 10495 10493 10491 10488 10485 10483 10481 10478 10476 10473 10470 10467 10464 10461 10457 10454 10451 10449 10446 10444 10442 10439 10437 10435 10432 10430 10428 10426 10425 10424 10422 10420 10419 10418 10417 10415 10414 10413 10412 10410 10408 10407 10405
10488 10490 10492 10494 10496 10498 10500 10501 10502 10503 10504 10505 10506 10507 10508 10508 10508 10508 10508 10508 10509 10509 10508 10507 10507 10506 10506 10506 10505 10504 10504 10503 10502 10500 10499 10498 10496 10495 10494 10492 10491 10489 10487 10486 10484 10482 10480 10477 10474 10471 10469 10466 10463 10460 10457 10453 10450 10448 10445 10442 10440 10437 10435 10433 10431 10429 10427 10425 10423 10421 10419 10418 10417 10415 10414 10413 10412 10411 10410 10408 10407 10406 10405 10404 10403 10401 10399
10483 10485 10487 10489 10490 10492 10493 10494 10495 10496 10497 10497 10498 10499 10499 10500 10500 10500 10500 10499 10499 10499 10499 10499 10498 10497 10496 10496 10495 10494 10494 10493 10492 10490 10489 10487 10486 10484 10482 10481 10479 10477 10475 10473 10471 10469 10467 10465 10462 10459 10456 10453 10451 10447 10444 10441 10438 10436 10433 10431 10429 10427 10425 10424 10422 10420 10419 10417 10415 10413 10411 10410 10409 10408 10407 10406 10405 10404 10403 10401 10400 10399 10398 10397 10396 10395 10393
10478 10480 10481 10483 10484 10485 10486 10487 10488 10488 10489 10490 10490 10490 10491 10491 10491 10491 10491 10490 10490 10489 10489 10489 10488 10487 10486 10485 10485 10484 10483 10482 10481 10480 10478 10477 10475 10473 10471 10469 10467 10465 10463 10461 10459 10457 10454 10452 10450 10447 10444 10441 10438 10435 10432 10429 10427 10425 10423 10421 10419 10417 10416 10414 10413 10412 10411 10409 10407 10406 10404 10403 10402 10401 10400 10399 10398 10397 10395 10394 10393 10392 10391 10390 10389 10388 10387
10473 10474 10475 10476 10477 10477 10479 10479 10480 10481 10481 10481 10481 10481 10481 10482 10482 10482 10482 10481 10480 10480 10479 10478 10478 10477 10476 10476 10475 10474 10473 10471 10470 10468 10467 10465 10464 10462 10459 10457 10455 10454 10451 10449 10447 10445 10442 10440 10437 10435 10432 10429 10426 10424 10422 10419 10417 10415 10414 10412 10411 10409 10407 10406 10405 10404 10403 10402 10401 10399 10398 10397 10395 10394 10393 10392 10391 10390 10389 10387 10386 10385 10384 10384 10383 10382 10381
10467 10468 10468 10468 10469 10470 10471 10472 10472 10472 10472 10472 10472 10472 10472 10472 10473 10473 10473 10472 10471 10470 10469 10468 10468 10467 10466 10465 10464 10463 10462 10460 10458 10457 10455 10454 10452 10450 10448 10446 10444 10442 10440 10438 10435 10433 10430 10428 10425 10423 10420 10418 10416 10414 10412 10410 10409 10407 10406 10405 10403 10401 10400 10399 10398 10397 10397 10396 10394 10393 10392 10390 10389 10388 10386 10385 10385 10384 10383 10381 10380 10378 10377 10376 10376 10375 10374